Location: Evensen
(52.5775°N, 9.5258°E)
Time: 10:38:18
(UTC+00:00)

Cosmos 1937 Rocket - Pass Details

Date: 15 May 2026
Orbit: 743 x 774 km, 74.0° (Epoch: 6 June)

Event Time Altitude Azimuth Distance (km) Brightness Sun altitude
Rises 22:20:10 0° 334° (NNW) 3,208 8.3 -17.3°
Reaches altitude 10° 22:22:33 10° 334° (NNW) 2,276 7.2 -17.4°
Maximum altitude 22:27:43 87° 247° (WSW) 753 3.4 -17.5°
Enters shadow 22:30:09 32° 158° (SSE) 1,266 4.1 -17.6°
